www.pogodaiklimat.ru

Погода и климат >> Архив погоды >> Россия >> Ханты-Мансийский АО >> Сосьва


ПОГОДА в Сосьве

  • Прогноз погоды в Сосьве
  • Монитор погоды в Сосьве

АРХИВ ПОГОДЫ в Сосьве

Время (UTC), дата Ветер
(напр.,м/с)
 
Видим.   Явления Облачность Т
(С)
Тd
(С)
f
(%)
Тe
(С)
Тes
(С)
Комфортность P
(гПа)
Po
(гПа)
Тmin
(С)
Tmax
(С)
R
(мм)
R24
(мм)
S
(см)
18 11.09 ЮВ 1 20 км {ливн. осадки} 10/0
[As op]
+11.9 +11.9 100 +12 +12 1017.9 1014.6
21 11.09 С 1 20 км 10/8 600 м
[Cb cap As op]
+11.4 +11.4 100 +11 +11 1017.7 1014.4
00 12.09 С 1 20 км 10/8 600 м
[Cb cap As op]
+11.3 +11.3 100 +11 +11 1019.1 1015.9
03 12.09 С 2 50 км 10/0
[Ci fib]
+9.3 +8.3 93 +7 +8 1021.3 1018.0 +9.2 1
06 12.09 Ю 1 50 км 4/3 1000 м
[Cu med, cong Ci fib]
+11.6 +8.5 81 +11 +15 1021.9 1018.6 +8.9
09 12.09 Ю 1 50 км 6/3 600 м
[Cu Sc Ci fib]
+15.4 +9.1 66 +16 +20 1021.2 1017.9
12 12.09 ЮВ 2 50 км 6/6 600 м
[Cb cap]
+16.9 +10.3 65 +17 +18 1019.4 1016.1
15 12.09 штиль 0 20 км 9/9 600 м
[Cb cap]
+12.6 +11.2 91 +12 +12 1018.2 1014.9 +17.4
18 12.09 штиль 0 10 км гроза, ливневой дождь 10/10 600 м
[Cb cap]
+11.5 +11.5 100 +11 +11 1016.5 1013.2
21 12.09 Ю 1 20 км {гроза, ливн. осадки} 8/0
[Ci fib]
+10.1 +10.1 100 +9 +9 1013.9 1010.6
00 13.09 штиль 0 4000 м дымка {гроза, ливн. осадки} 4/4 600 м
[Sc]
+8.6 +8.6 100 +8 +8 1011.8 1008.5
03 13.09 штиль 0 4000 м дымка 6/4 600 м
[Sc Ci fib]
+9.5 +9.5 100 +9 +9 1010.6 1007.4 +8.2 2
06 13.09 З 4 50 км 4/4 600 м
[Sc]
+16.7 +12.9 78 +16 +18 1009.2 1006.0
09 13.09 З 4 50 км 9/8 600 м
[Cu Sc Ci sp]
+19.3 +12.2 63 +20 +21 1008.6 1005.4
12 13.09 З 4 50 км 8/8 600 м
[Cb cap]
+19.5 +12.7 65 +21 +21 комфорт 1008.2 1005.0
15 13.09 З 1 20 км 10/3 600 м
[Sc diur, vesp Ac As]
+13.8 +11.6 87 +14 +14 1008.4 1005.2 +20.0
18 13.09 З 1 20 км 10/0
[Ci fib]
+10.5 +10.4 99 +10 +10 1008.2 1004.9
21 13.09 СВ 2 20 км 8/0
[Ac As]
+9.9 +9.9 100 +8 +8 1007.4 1004.1
00 14.09 штиль 0 20 км 10/0
[Ac As]
+7.3 +7.3 100 +6 +6 1007.1 1003.8
03 14.09 штиль 0 50 км дымка 8/8 600 м
[Sc]
+8.9 +8.9 100 +8 +8 1007.4 1004.1 +7.0
06 14.09 З 1 50 км 10/10 600 м
[Sc]
+12.2 +11.3 94 +12 +12 1007.5 1004.2
09 14.09 З 1 50 км 9/8 600 м
[Cu Sc Ci sp]
+14.4 +11.8 84 +15 +16 1007.3 1004.1
12 14.09 В 1 50 км 9/9 600 м
[Cb cap]
+16.2 +12.4 78 +17 +17 1006.5 1003.3
15 14.09 В 1 20 км 10/6 600 м
[Cb cap Cs]
+13.3 +12.0 92 +13 +13 1006.3 1003.1 +16.9
18 14.09 ЮВ 1 10 км слаб. ливневой дождь 9/9 600 м
[Cb cap]
+12.5 +12.2 98 +12 +12 1004.9 1001.7
21 14.09 ЮВ 2 20 км {ливн. осадки} 8/8 600 м
[Sc]
+12.2 +12.2 100 +11 +11 1003.6 1000.4
00 15.09 ЮВ 2 500 м туман {ливн. осадки} ?/? +12.2 +12.2 100 +11 +11 1001.7 998.5
03 15.09 З 2 50 км дымка {туман} 10/0
[Ac As]
+11.2 +11.2 100 +10 +10 1001.1 997.9 +11.2 2
06 15.09 З 1 50 км {туман} 9/9 600 м
[Sc]
+11.4 +11.3 99 +11 +11 1001.5 998.3 +9.1
09 15.09 ЮЗ 3 50 км 10/0
[Ci fib]
+15.2 +7.9 62 +15 +18 1000.9 997.7
12 15.09 ЮЗ 2 50 км 10/0
[Ci fib]
+15.8 +5.8 51 +16 +17 1000.2 997.0
15 15.09 ЮВ 1 20 км 6/0
[Ac trans]
+10.8 +7.2 78 +11 +11 999.5 996.3 +16.7
18 15.09 З 2 20 км 8/0
[Cs]
+8.8 +4.9 76 +7 +7 999.2 996.0
21 15.09 В 1 20 км 3/0
[Ci fib]
+4.5 +4.5 100 +3 +3 998.7 995.4
00 16.09 Ю 1 20 км ясно +5.9 +3.9 87 +5 +5 998.3 995.0
03 16.09 ЮВ 1 50 км ясно +6.6 +3.4 80 +6 +6 998.2 994.9 +3.7
06 16.09 ЮЗ 4 50 км 3/3 600 м
[Sc diur, vesp]
+11.1 +4.1 62 +9 +11 997.3 994.1
09 16.09 ЮЗ 3 50 км 8/8 600 м
[Cb cap]
+11.9 +3.0 54 +11 +11 997.3 994.1
12 16.09 ЮЗ 3 50 км 6/6 600 м
[Cb cap]
+12.0 +3.0 54 +11 +11 997.2 994.0
15 16.09 ЮЗ 1 20 км 8/3 600 м
[Cb cap Ac lent]
+8.0 +3.5 73 +7 +7 997.3 994.0 +12.8
18 16.09 ЮВ 1 20 км ясно +5.0 +2.4 83 +4 +4 996.6 993.3
21 16.09 ЮВ 1 20 км ясно +2.6 +1.7 94 +1 +1 995.8 992.4
00 17.09 ЮВ 2 20 км ясно +2.9 +2.2 95 -0 -0 994.7 991.4
03 17.09 ЮВ 2 50 км 10/10 600 м
[Sc]
+3.6 +2.0 89 +1 +1 993.7 990.4 +2.2
06 17.09 ЮВ 3 50 км 10/6 600 м
[Sc Cs]
+7.2 +3.2 76 +4 +5 993.1 989.8
09 17.09 Ю 2 50 км 10/3 600 м
[Sc Ac As]
+10.1 +5.8 75 +9 +10 992.8 989.6
12 17.09 ЮВ 2 10 км слаб. ливневой дождь 10/10 600 м
[Cb cap]
+8.9 +8.0 94 +7 +7 993.3 990.1
15 17.09 ЮЗ 1 20 км {ливн. осадки} 10/8 600 м
[Cb cap Ci ing]
+7.6 +7.0 96 +7 +7 993.7 990.4 +11.0 0.7
18 17.09 В 1 20 км {ливн. осадки} 10/10 600 м
[Sc]
+7.5 +7.2 98 +6 +6 993.7 990.5
21 17.09 ЮВ 2 20 км 10/10 600 м
[Sc]
+7.0 +7.0 100 +5 +5 993.4 990.1
00 18.09 ЮВ 2 500 м туман ?/? +6.3 +6.3 100 +4 +4 993.5 990.2
03 18.09 ЮВ 2 500 м туман ?/? +6.6 +6.6 100 +4 +4 993.2 989.9 +6.1
06 18.09 ЮВ 1 50 км {туман} 9/9 600 м
[Cb cap]
+8.7 +7.8 94 +8 +8 993.1 989.9
09 18.09 ЮВ 2 50 км 9/9 600 м
[Cb cap]
+11.0 +8.1 82 +10 +10 993.2 990.0
12 18.09 ЮВ 2 50 км 9/9 600 м
[Cb cap]
+11.4 +7.5 77 +10 +10 993.5 990.3

 

Местоположение метеостанции Сосьва (Ханты-Мансийский АО, Россия): широта 63.65 долгота 62.10 высота над уровнем моря 28 м.

В архиве по умолчанию представлена погода в Сосьве за последнюю неделю. Архивные данные за месяц целиком и за предыдущие месяцы, начиная с января 2011 года, Вы можете получить, выбрав интересующий диапазон дат из раскрывающегося списка и нажав кнопку "Ввод!".


*Определитесь, кто Вы:
робот инопланетянин человек

Внимание! Время в таблицах - всемирное. Для получения местного времени необходимо прибавить поправку, которая равна 5 ч.

Смотрите также архив погоды в соседних городах и на ближайших метеорологических станциях:

Погода в Саранпауле (Ханты-Мансийский АО, Россия) (92 км)
Погода в Приполярном (Ханты-Мансийский АО, Россия) (125 км)
Погода в Игриме (Ханты-Мансийский АО, Россия) (127 км)
Погода в Березово (Ханты-Мансийский АО, Россия) (147 км)
Погода в Няксимволе (Ханты-Мансийский АО, Россия) (149 км)
Погода в Агирише (Ханты-Мансийский АО, Россия) (198 км)
Погода в Усть-Щугоре (Коми, Россия) (229 км)
Погода в Мужах (Ямало-Ненецкий АО, Россия) (230 км)
Погода в Вуктыле (Коми, Россия) (236 км)
Погода в Вонъегане (Ханты-Мансийский АО, Россия) (237 км)

Пояснения к столбцам:

Ветер - указаны скорость ветра в м/с - средняя за 10 мин, порывы в срок и между сроками (в фигурных скобках) и направление, откуда дует ветер: С - северный, СВ - северо-восточный, В - восточный, ЮВ - юго-восточный, Ю - южный, ЮЗ - юго-западный, З - западный, СЗ - северо-западный.
Видимость - горизонтальная дальность видимости в метрах или километрах. При видимости от 1 до 10 км при отсутствии осадков обычно наблюдается дымка, при ухудшении видимости до 1 км и менее - туман. В сухую погоду видимость может ухудшаться дымом, пылью или мглою.
Явления - указаны атмосферные явления, наблюдавшиеся в срок или в последний час перед сроком; фигурными скобками обозначены явления, наблюдавшиеся между сроками (за 1-3 часа до срока); квадратными скобками обозначены град или гололедные отложения с указанием их диаметра в мм.
Облачность - указаны через наклонную черту общая и нижняя облачность в баллах и высота нижней границы облаков в метрах; квадратными скобками обозначены формы облаков: Ci - перистые, Cs - перисто-слоистые, Cc - перисто-кучевые, Ac - высококучевые, As - высокослоистые, Sc - слоисто-кучевые, Ns - слоисто-дождевые, Cu - кучевые, Cb - кучево-дождевые. Подробнее классификацию облаков см. в Атласе облаков (PDF).
T - Температура воздуха - температура, измеренная на высоте 2 м над землей.
Td - Температура точки росы - температура, при понижении до которой содержащийся в воздухе водяной пар достигнет насыщения.
f - Относительная влажность воздуха - влажноcть воздуха, измеренная на высоте 2 м над землей.
Te - Эффективная температура - температура, которую ощущает одетый по сезону человек в тени. Характеристика душности погоды. При расчете учитывается влияние влажности воздуха и скорости ветра на теплоощущения человека.
Tes - Эффективная температура на солнце - температура, которую ощущает человек, с поправкой на солнечный нагрев. Характеристика знойности погоды. Зависит от высоты солнца над горизонтом, облачности и скорости ветра. Ночью, в пасмурную погоду, а также при ветре 12 м/с и более поправка равна нулю.
P - Атмосферное давление - приведенное к уровню моря атмосферное давление.
Po - Атмосферное давление - измеренное на уровне метеостанции атмосферное давление.
Tmin - Минимальная температура - минимум температуры воздуха на высоте 2 м над землей.
Tmax - Максимальная температура - максимум температуры воздуха на высоте 2 м над землей.
R - Количество осадков - Количество выпавших осадков за период времени, мм. При наведении курсора мыши на число - период времени, за который выпало указанное количество осадков.
R24 - Количество осадков - Количество выпавших осадков за 24 часа, мм.
S - Снежный покров - Высота снежного покрова, см. При наведении курсора мыши на число - состояние снежного покрова и степень покрытия местности в баллах.